Regional Weather Roundup
Issued by NWS Sioux Falls, SD

Home | Current Version | Previous Version | Text Only | Print | Product List | Glossary On
Versions: 1 2 3 4 5 6 7 8 9 10 11 12 13 14 15 16 17 18 19 20 21 22 23 24 25 26 27 28 29 30 31 32 33 34 35 36 37 38 39 40 41 42 43 44 45 46 47 48 49 50
000
ASUS43 KFSD 031302
RWRFSD

WEATHER ROUNDUP FOR SE SOUTH DAKOTA/SW MINNESOTA/NW IOWA
NATIONAL WEATHER SERVICE SIOUX FALLS SD
800 AM CDT MON AUG 03 2015

NOTE: "FAIR" INDICATES FEW OR NO CLOUDS BELOW 12,000 FEET WITH NO
SIGNIFICANT WEATHER AND OR OBSTRUCTIONS TO VISIBILITY.


SDZ038>040-050-052>070-031400-
SOUTHEAST SOUTH DAKOTA

CITY           SKY/WX    TMP DP  RH WIND       PRES   REMARKS
BROOKINGS      SUNNY     61  55  82 CALM      30.01R
CHAMBERLAIN    PTSUNNY   63  59  88 CALM      30.01R FOG
HURON          SUNNY     60  57  89 CALM      29.99R
MADISON        FAIR      63  63 100 SW3       30.00R
MITCHELL       SUNNY     61  59  93 CALM      30.00R
SIOUX FALLS    MOSUNNY   64  60  87 CALM      29.99R
WINNER         FAIR      65  58  78 CALM      30.01R
YANKTON        SUNNY     63  61  94 CALM      29.99S
$$

MNZ071-072-080-081-089-090-097-098-031400-
SOUTHWEST MINNESOTA

CITY           SKY/WX    TMP DP  RH WIND       PRES   REMARKS
FAIRMONT       SUNNY     61  52  72 CALM      29.96R
JACKSON        SUNNY     61  55  82 CALM      29.98S
LUVERNE        SUNNY     61  55  82 CALM      29.99S
MARSHALL       SUNNY     61  52  72 NW7       29.97R
MONTEVIDEO     SUNNY     63  57  82 NW5       29.97R
PIPESTONE      SUNNY     59  57  94 CALM      29.99R
REDWOOD FALLS  SUNNY     61  53  75 NW6       29.95R
WINDOM         SUNNY     61  54  77 CALM      29.98R
WORTHINGTON    SUNNY     61  54  77 W5        29.99R
$$

IAZ001>003-012>014-020>022-031-032-NEZ013-014-SDZ071-031400-
NORTHWEST IOWA

CITY           SKY/WX    TMP DP  RH WIND       PRES   REMARKS
DENISON        SUNNY     64  63  94 NE3       29.95S
ESTHERVILLE    SUNNY     59  55  87 SW6       29.97S
LE MARS        SUNNY     61  61 100 CALM      30.00R
SIOUX CITY     NOT AVBL
SPENCER        SUNNY     60  54  80 CALM      29.98S
$$

ABBREVIATIONS USED IN REMARKS
   TC - TEMPERATURE IN CELSIUS
  WCI - WIND CHILL INDEX
   HX - HEAT INDEX
  VSB - VISIBILITY



USA.gov is the U.S. government's official web portal to all federal, state and local government web resources and services.